Flag for Japan Weather past 2 weeks in Himeji, Japan

Now
45 °F

Scattered clouds.


Feels Like: 40 °F
Forecast: 40 / 46 °F
Wind: 8 mph from North

Location: Osaka International Airport

Current Time: Feb 28, 2015 at 11:23:46 AM

Latest Report: Feb 28, 2015 at 11:00 AM


Visibility: N/A

Pressure: 30.33 "Hg

Humidity: 42%

Dew point: 23 °F

Location of HimejiLocation

Historic Weather in Himeji — Graph

°F

Himeji temperature yesterday

Maximum temperature yesterday: 48 °F (at 11:00 AM)
Minimum temperature yesterday: 39 °F (at 7:00 PM)
Average temperature yesterday: 44 °F

Past Weeks' High & Low Weather Summary

 TemperatureHumidityPressure
High59 °F (Feb 22, 2:00 PM)100% (Feb 23, 5:00 AM)30.36 "Hg (Feb 23, 5:00 AM)
Low28 °F (Feb 21, 7:00 AM)29% (Feb 14, 2:00 PM)29.80 "Hg (Feb 17, 2:00 PM)
Average46 °F64%30.04 "Hg
* Reported Feb 13 10:00 AM — Feb 28 10:00 AM, Himeji, Weather by CustomWeather, © 2015

Note: Actual official high and low records may vary slightly from our data, if they occured in-between our weather recording intervals... More about our weather records

Advertising

Himeji weather history for previous 24 hours

 ConditionsComfort  
Time TempWeatherWind HumidityBarometerVisibility
10:00 AM
Sat, Feb 28
43 °FPassing clouds.3 mph53%30.33 "HgN/A
9:00 AM43 °FPassing clouds.5 mph57%30.36 "HgN/A
8:00 AM39 °FScattered clouds.3 mph65%30.36 "HgN/A
7:00 AM39 °FPartly sunny.1 mph65%30.33 "HgN/A
6:00 AM39 °FPartly cloudy.7 mph65%30.30 "HgN/A
5:00 AM37 °FPassing clouds.7 mph70%30.30 "HgN/A
8:00 PM
Fri, Feb 27
39 °FPassing clouds.9 mph61%30.21 "HgN/A
7:00 PM39 °FPassing clouds.8 mph61%30.18 "HgN/A
6:00 PM41 °FPassing clouds.13 mph53%30.15 "HgN/A
5:00 PM43 °FScattered clouds.22 mph53%30.09 "HgN/A
4:00 PM45 °FScattered showers. Scattered clouds.21 mph49%30.07 "HgN/A
3:00 PM45 °FSprinkles. Partly sunny.18 mph53%30.07 "HgN/A
2:00 PM46 °FScattered clouds.18 mph57%30.04 "HgN/A
1:00 PM48 °FScattered showers. Passing clouds.15 mph54%30.01 "HgN/A
12:00 PM46 °FSprinkles. Partly sunny.8 mph57%30.04 "HgN/A
11:00 AM48 °FPassing clouds.6 mph40%30.04 "HgN/A
Weather by CustomWeather, © 2015

See weather overviewHow to use our weather pages